Location: Cambridge (historical)
(38.6883°N, 119.0140°W)
Time: 16:06:25
(UTC+00:00)

Cosmos 1980 Rocket - Pass Details

Date: 29 October 2020
Orbit: 831 x 848 km, 71.0° (Epoch: 22 November)

Event Time Altitude Azimuth Distance (km) Brightness Sun altitude
Exits shadow 12:51:32 - 335° (NNW) 2,962 4.8 -17.9°
Reaches altitude 10° 12:52:53 10° 335° (NNW) 2,444 4.3 -17.6°
Maximum altitude 12:58:29 78° 250° (WSW) 853 2.1 -16.5°
Drops below altitude 10° 13:04:04 10° 164° (SSE) 2,435 4.9 -15.4°
Sets 13:06:29 0° 163° (SSE) 3,367 5.6 -14.9°
